Time,TemperatureF,DewpointF,PressureIn,WindDirection,WindDirectionDegrees,WindSpeedMPH,WindSpeedGustMPH,Humidity,HourlyPrecipIn,Conditions,Clouds,dailyrainin,SoftwareType,DateUTC
2013-08-09 00:01:00,74.0,68.0,29.96,South,180,1.0,5.0,82,0.00,,,0.00,,2013-08-09 04:01:00,
2013-08-09 00:12:00,74.0,68.0,29.96,South,180,1.0,5.0,82,0.00,,,0.00,,2013-08-09 04:12:00,
2013-08-09 00:22:00,73.0,68.0,29.96,ESE,112,1.0,3.0,83,0.00,,,0.00,,2013-08-09 04:22:00,
2013-08-09 00:33:00,73.0,68.0,29.96,WSW,248,1.0,2.0,83,0.00,,,0.00,,2013-08-09 04:33:00,
2013-08-09 00:43:00,73.0,68.0,29.96,WSW,248,1.0,2.0,83,0.00,,,0.00,,2013-08-09 04:43:00,
2013-08-09 00:53:00,73.0,68.0,29.96,SE,135,2.0,5.0,84,0.00,,,0.00,,2013-08-09 04:53:00,
2013-08-09 01:02:00,73.0,68.0,29.95,WSW,248,2.0,5.0,84,0.00,,,0.00,,2013-08-09 05:02:00,
2013-08-09 01:12:00,73.0,68.0,29.95,WSW,248,2.0,5.0,84,0.00,,,0.00,,2013-08-09 05:12:00,
2013-08-09 01:22:00,73.0,68.0,29.94,NNE,22,3.0,6.0,85,0.00,,,0.00,,2013-08-09 05:22:00,
2013-08-09 01:43:00,73.0,68.0,29.94,SW,225,2.0,7.0,85,0.00,,,0.00,,2013-08-09 05:43:00,
2013-08-09 01:52:00,73.0,69.0,29.94,WSW,248,2.0,6.0,86,0.00,,,0.00,,2013-08-09 05:52:00,
2013-08-09 02:01:00,73.0,69.0,29.94,ESE,112,2.0,3.0,86,0.00,,,0.00,,2013-08-09 06:01:00,
2013-08-09 02:11:00,73.0,69.0,29.94,ESE,112,2.0,3.0,86,0.00,,,0.00,,2013-08-09 06:11:00,
2013-08-09 02:22:00,73.0,69.0,29.93,SW,225,1.0,3.0,86,0.00,,,0.00,,2013-08-09 06:22:00,
2013-08-09 02:32:00,72.0,68.0,29.93,SSE,158,1.0,2.0,86,0.00,,,0.00,,2013-08-09 06:32:00,
2013-08-09 02:43:00,72.0,68.0,29.93,SSE,158,1.0,2.0,86,0.00,,,0.00,,2013-08-09 06:43:00,
2013-08-09 02:52:00,72.0,68.0,29.92,SW,225,1.0,3.0,86,0.00,,,0.00,,2013-08-09 06:52:00,
2013-08-09 03:01:00,72.0,68.0,29.92,South,180,1.0,2.0,86,0.00,,,0.00,,2013-08-09 07:01:00,
2013-08-09 03:12:00,72.0,68.0,29.92,South,180,1.0,2.0,86,0.00,,,0.00,,2013-08-09 07:12:00,
2013-08-09 03:33:00,72.0,68.0,29.91,WSW,248,1.0,3.0,87,0.00,,,0.00,,2013-08-09 07:33:00,
2013-08-09 03:43:00,72.0,68.0,29.91,WSW,248,1.0,3.0,87,0.00,,,0.00,,2013-08-09 07:43:00,
2013-08-09 03:53:00,72.0,68.0,29.90,SSE,158,0.0,2.0,88,0.00,,,0.00,,2013-08-09 07:53:00,
2013-08-09 04:02:00,72.0,68.0,29.90,NW,315,0.0,2.0,88,0.00,,,0.00,,2013-08-09 08:02:00,
2013-08-09 04:12:00,72.0,68.0,29.90,NW,315,0.0,2.0,88,0.00,,,0.00,,2013-08-09 08:12:00,
2013-08-09 04:22:00,72.0,69.0,29.90,South,180,2.0,2.0,89,0.00,,,0.00,,2013-08-09 08:22:00,
2013-08-09 04:32:00,72.0,69.0,29.90,SW,225,2.0,3.0,89,0.00,,,0.00,,2013-08-09 08:32:00,
2013-08-09 04:43:00,72.0,69.0,29.90,SW,225,2.0,3.0,89,0.00,,,0.00,,2013-08-09 08:43:00,
2013-08-09 04:53:00,72.0,69.0,29.90,WSW,248,1.0,2.0,89,0.00,,,0.00,,2013-08-09 08:53:00,
2013-08-09 05:02:00,72.0,69.0,29.89,WNW,292,1.0,2.0,89,0.00,,,0.00,,2013-08-09 09:02:00,
2013-08-09 05:12:00,72.0,69.0,29.89,WNW,292,1.0,2.0,89,0.00,,,0.00,,2013-08-09 09:12:00,
2013-08-09 05:22:00,72.0,69.0,29.88,SSE,158,1.0,5.0,89,0.00,,,0.00,,2013-08-09 09:22:00,
2013-08-09 05:32:00,72.0,69.0,29.88,WSW,248,1.0,2.0,90,0.00,,,0.00,,2013-08-09 09:32:00,
2013-08-09 05:43:00,72.0,69.0,29.88,WSW,248,1.0,2.0,90,0.00,,,0.00,,2013-08-09 09:43:00,
2013-08-09 05:52:00,72.0,69.0,29.88,SW,225,1.0,3.0,90,0.00,,,0.00,,2013-08-09 09:52:00,
2013-08-09 06:01:00,72.0,69.0,29.88,South,180,1.0,2.0,90,0.00,,,0.00,,2013-08-09 10:01:00,
2013-08-09 06:12:00,72.0,69.0,29.88,South,180,1.0,2.0,90,0.00,,,0.00,,2013-08-09 10:12:00,
2013-08-09 06:22:00,72.0,69.0,29.88,SSE,158,2.0,3.0,90,0.00,,,0.00,,2013-08-09 10:22:00,
2013-08-09 06:43:00,72.0,69.0,29.88,SE,135,1.0,2.0,90,0.00,,,0.00,,2013-08-09 10:43:00,
2013-08-09 06:53:00,72.0,69.0,29.88,South,180,2.0,3.0,91,0.00,,,0.00,,2013-08-09 10:53:00,
2013-08-09 07:02:00,72.0,69.0,29.87,SSW,202,1.0,3.0,91,0.00,,,0.00,,2013-08-09 11:02:00,
2013-08-09 07:11:00,72.0,69.0,29.87,SSW,202,1.0,3.0,91,0.00,,,0.00,,2013-08-09 11:11:00,
2013-08-09 07:22:00,72.0,69.0,29.86,WSW,248,2.0,3.0,91,0.00,,,0.00,,2013-08-09 11:22:00,
2013-08-09 07:33:00,72.0,69.0,29.86,SSW,202,2.0,3.0,91,0.00,,,0.00,,2013-08-09 11:33:00,
2013-08-09 07:43:00,72.0,69.0,29.86,SSW,202,2.0,3.0,91,0.00,,,0.00,,2013-08-09 11:43:00,
2013-08-09 07:53:00,72.0,69.0,29.87,SW,225,1.0,3.0,91,0.00,,,0.00,,2013-08-09 11:53:00,
2013-08-09 08:02:00,71.0,68.0,29.87,West,270,1.0,7.0,91,0.00,,,0.00,,2013-08-09 12:02:00,
2013-08-09 08:12:00,71.0,68.0,29.87,West,270,1.0,7.0,91,0.00,,,0.00,,2013-08-09 12:12:00,
2013-08-09 08:22:00,71.0,69.0,29.87,WSW,248,5.0,9.0,93,0.00,,,0.00,,2013-08-09 12:22:00,
2013-08-09 08:32:00,71.0,69.0,29.87,WSW,248,5.0,7.0,93,0.00,,,0.00,,2013-08-09 12:32:00,
2013-08-09 08:43:00,71.0,69.0,29.87,WSW,248,5.0,7.0,93,0.00,,,0.00,,2013-08-09 12:43:00,
2013-08-09 08:52:00,71.0,69.0,29.88,WSW,248,0.0,7.0,94,0.00,,,0.00,,2013-08-09 12:52:00,
2013-08-09 09:01:00,71.0,69.0,29.87,WSW,248,0.0,0.0,94,0.00,,,0.00,,2013-08-09 13:01:00,
2013-08-09 09:12:00,71.0,69.0,29.87,WSW,248,0.0,0.0,94,0.00,,,0.00,,2013-08-09 13:12:00,
2013-08-09 09:32:00,72.0,70.0,29.86,WSW,248,0.0,0.0,94,0.00,,,0.00,,2013-08-09 13:32:00,
2013-08-09 09:43:00,72.0,70.0,29.86,WSW,248,0.0,0.0,94,0.00,,,0.00,,2013-08-09 13:43:00,
2013-08-09 09:52:00,72.0,70.0,29.87,WSW,248,0.0,0.0,94,0.00,,,0.00,,2013-08-09 13:52:00,
2013-08-09 10:02:00,72.0,70.0,29.86,WSW,248,0.0,0.0,94,0.00,,,0.00,,2013-08-09 14:02:00,
2013-08-09 10:11:00,72.0,70.0,29.86,WSW,248,0.0,0.0,94,0.00,,,0.00,,2013-08-09 14:11:00,
2013-08-09 10:43:00,73.0,71.0,29.87,WSW,248,0.0,0.0,94,0.00,,,0.00,,2013-08-09 14:43:00,
2013-08-09 10:53:00,73.0,71.0,29.87,West,270,3.0,6.0,94,0.00,,,0.00,,2013-08-09 14:53:00,
2013-08-09 11:02:00,73.0,71.0,29.87,West,270,5.0,6.0,93,0.00,,,0.00,,2013-08-09 15:02:00,
2013-08-09 11:12:00,73.0,71.0,29.87,West,270,5.0,6.0,93,0.00,,,0.00,,2013-08-09 15:12:00,
2013-08-09 11:33:00,73.0,71.0,29.88,SW,225,2.0,6.0,94,0.00,,,0.00,,2013-08-09 15:33:00,
2013-08-09 11:44:00,73.0,71.0,29.88,SW,225,2.0,6.0,94,0.00,,,0.00,,2013-08-09 15:44:00,
2013-08-09 11:53:00,74.0,72.0,29.87,West,270,3.0,6.0,93,0.00,,,0.00,,2013-08-09 15:53:00,
2013-08-09 12:02:00,74.0,72.0,29.87,WSW,248,2.0,5.0,94,0.00,,,0.00,,2013-08-09 16:02:00,
2013-08-09 12:11:00,74.0,72.0,29.87,WSW,248,2.0,5.0,94,0.00,,,0.00,,2013-08-09 16:11:00,
2013-08-09 12:22:00,74.0,72.0,29.86,WSW,248,2.0,5.0,93,0.00,,,0.00,,2013-08-09 16:22:00,
2013-08-09 12:32:00,74.0,72.0,29.86,West,270,3.0,5.0,93,0.00,,,0.00,,2013-08-09 16:32:00,
2013-08-09 12:43:00,74.0,72.0,29.86,West,270,3.0,5.0,93,0.00,,,0.00,,2013-08-09 16:43:00,
2013-08-09 12:53:00,74.0,72.0,29.86,WSW,248,3.0,7.0,93,0.00,,,0.00,,2013-08-09 16:53:00,
2013-08-09 13:11:00,74.0,72.0,29.86,West,270,2.0,5.0,93,0.00,,,0.00,,2013-08-09 17:11:00,
2013-08-09 13:22:00,74.0,72.0,29.86,WSW,248,2.0,8.0,93,0.00,,,0.00,,2013-08-09 17:22:00,
2013-08-09 13:33:00,75.0,73.0,29.86,WSW,248,0.0,8.0,94,0.00,,,0.00,,2013-08-09 17:33:00,
2013-08-09 13:43:00,75.0,73.0,29.86,WSW,248,0.0,8.0,94,0.00,,,0.00,,2013-08-09 17:43:00,
2013-08-09 13:52:00,75.0,73.0,29.87,WSW,248,0.0,0.0,93,0.00,,,0.00,,2013-08-09 17:52:00,
2013-08-09 14:11:00,76.0,74.0,29.85,WSW,248,0.0,0.0,93,0.00,,,0.00,,2013-08-09 18:11:00,
2013-08-09 14:22:00,76.0,74.0,29.85,SW,225,5.0,8.0,92,0.00,,,0.00,,2013-08-09 18:22:00,
2013-08-09 14:32:00,77.0,74.0,29.85,WSW,248,3.0,7.0,92,0.00,,,0.00,,2013-08-09 18:32:00,
2013-08-09 14:43:00,77.0,74.0,29.85,WSW,248,3.0,7.0,92,0.00,,,0.00,,2013-08-09 18:43:00,
2013-08-09 14:53:00,79.0,75.0,29.92,WSW,248,3.0,8.0,89,0.00,,,0.00,,2013-08-09 18:53:00,
2013-08-09 15:02:00,79.0,76.0,29.92,WSW,248,4.0,8.0,90,0.00,,,0.00,,2013-08-09 19:02:00,
2013-08-09 15:11:00,79.0,76.0,29.92,WSW,248,4.0,8.0,90,0.00,,,0.00,,2013-08-09 19:11:00,
2013-08-09 15:43:00,79.0,75.0,29.92,WSW,248,5.0,7.0,87,0.00,,,0.00,,2013-08-09 19:43:00,
2013-08-09 15:52:00,78.0,74.0,29.86,WSW,248,2.0,6.0,88,0.00,,,0.00,,2013-08-09 19:52:00,
2013-08-09 16:02:00,77.0,74.0,29.85,NNW,338,1.0,2.0,89,0.00,,,0.00,,2013-08-09 20:02:00,
2013-08-09 16:11:00,77.0,74.0,29.85,NNW,338,1.0,2.0,89,0.00,,,0.00,,2013-08-09 20:11:00,
2013-08-09 16:22:00,76.0,73.0,29.83,South,180,0.0,2.0,89,0.00,,,0.00,,2013-08-09 20:22:00,
2013-08-09 16:32:00,76.0,73.0,29.83,West,270,1.0,3.0,89,0.00,,,0.00,,2013-08-09 20:32:00,
2013-08-09 16:43:00,76.0,73.0,29.83,West,270,1.0,3.0,89,0.00,,,0.00,,2013-08-09 20:43:00,
2013-08-09 16:52:00,77.0,73.0,29.85,WSW,248,5.0,6.0,88,0.00,,,0.00,,2013-08-09 20:52:00,
2013-08-09 17:12:00,78.0,74.0,29.84,WSW,248,5.0,7.0,87,0.00,,,0.00,,2013-08-09 21:12:00,
2013-08-09 17:22:00,80.0,74.0,29.91,WSW,248,5.0,8.0,81,0.00,,,0.00,,2013-08-09 21:22:00,
2013-08-09 17:33:00,81.0,73.0,29.91,WSW,248,4.0,7.0,78,0.00,,,0.00,,2013-08-09 21:33:00,
2013-08-09 17:43:00,81.0,73.0,29.91,WSW,248,4.0,7.0,78,0.00,,,0.00,,2013-08-09 21:43:00,
2013-08-09 17:52:00,80.0,73.0,29.91,WSW,248,3.0,7.0,79,0.00,,,0.00,,2013-08-09 21:52:00,
2013-08-09 18:02:00,79.0,72.0,29.90,WSW,248,4.0,6.0,79,0.00,,,0.00,,2013-08-09 22:02:00,
2013-08-09 18:11:00,79.0,72.0,29.90,WSW,248,4.0,6.0,79,0.00,,,0.00,,2013-08-09 22:11:00,
2013-08-09 18:22:00,79.0,73.0,29.92,NNE,22,3.0,6.0,81,0.00,,,0.00,,2013-08-09 22:22:00,
2013-08-09 18:32:00,77.0,70.0,29.92,NNE,22,0.0,2.0,78,0.00,,,0.00,,2013-08-09 22:32:00,
2013-08-09 18:42:00,77.0,70.0,29.92,NNE,22,0.0,2.0,78,0.00,,,0.00,,2013-08-09 22:42:00,
2013-08-09 18:52:00,76.0,69.0,29.85,NE,45,0.0,2.0,80,0.00,,,0.00,,2013-08-09 22:52:00,
2013-08-09 19:02:00,76.0,69.0,29.85,NW,315,0.0,0.0,80,0.00,,,0.00,,2013-08-09 23:02:00,
2013-08-09 19:11:00,76.0,69.0,29.85,NW,315,0.0,0.0,80,0.00,,,0.00,,2013-08-09 23:11:00,
2013-08-09 19:22:00,76.0,70.0,29.86,NW,315,0.0,0.0,81,0.00,,,0.00,,2013-08-09 23:22:00,
2013-08-09 19:43:00,76.0,70.0,29.86,NNW,338,0.0,0.0,81,0.00,,,0.00,,2013-08-09 23:43:00,
2013-08-09 19:52:00,75.0,69.0,29.86,NNW,338,0.0,0.0,83,0.00,,,0.00,,2013-08-09 23:52:00,
2013-08-09 20:01:00,75.0,69.0,29.87,WSW,248,0.0,1.0,83,0.00,,,0.00,,2013-08-10 00:01:00,
2013-08-09 20:22:00,74.0,68.0,29.88,NW,315,0.0,1.0,83,0.00,,,0.00,,2013-08-10 00:22:00,
2013-08-09 20:33:00,74.0,69.0,29.88,WSW,248,0.0,0.0,84,0.00,,,0.00,,2013-08-10 00:33:00,
2013-08-09 20:43:00,74.0,69.0,29.88,WSW,248,0.0,0.0,84,0.00,,,0.00,,2013-08-10 00:43:00,
2013-08-09 20:53:00,74.0,69.0,29.88,WSW,248,0.0,0.0,84,0.00,,,0.00,,2013-08-10 00:53:00,
2013-08-09 21:01:00,73.0,68.0,29.88,West,270,0.0,0.0,85,0.00,,,0.00,,2013-08-10 01:01:00,
2013-08-09 21:02:00,73.0,68.0,29.88,WNW,292,0.0,1.0,85,0.00,,,0.00,,2013-08-10 01:02:00,
2013-08-09 21:11:00,73.0,68.0,29.88,WNW,292,0.0,1.0,85,0.00,,,0.00,,2013-08-10 01:11:00,
2013-08-09 21:22:00,73.0,68.0,29.88,West,270,0.0,0.0,85,0.00,,,0.00,,2013-08-10 01:22:00,
2013-08-09 21:32:00,73.0,68.0,29.88,West,270,0.0,0.0,85,0.00,,,0.00,,2013-08-10 01:32:00,
2013-08-09 21:42:00,73.0,68.0,29.88,West,270,0.0,0.0,85,0.00,,,0.00,,2013-08-10 01:42:00,
2013-08-09 21:52:00,73.0,68.0,29.88,West,270,0.0,0.0,85,0.00,,,0.00,,2013-08-10 01:52:00,
2013-08-09 22:32:00,72.0,68.0,29.89,WSW,248,2.0,3.0,86,0.00,,,0.00,,2013-08-10 02:32:00,
2013-08-09 22:42:00,72.0,68.0,29.89,WSW,248,2.0,3.0,86,0.00,,,0.00,,2013-08-10 02:42:00,
2013-08-09 22:52:00,72.0,68.0,29.89,WSW,248,2.0,3.0,86,0.00,,,0.00,,2013-08-10 02:52:00,
2013-08-09 23:01:00,71.0,67.0,29.91,WSW,248,1.0,2.0,88,0.00,,,0.00,,2013-08-10 03:01:00,
2013-08-09 23:11:00,71.0,67.0,29.91,WSW,248,1.0,2.0,88,0.00,,,0.00,,2013-08-10 03:11:00,
2013-08-09 23:22:00,71.0,67.0,29.91,WSW,248,1.0,2.0,88,0.00,,,0.00,,2013-08-10 03:22:00,
2013-08-09 23:32:00,71.0,67.0,29.91,WSW,248,1.0,2.0,88,0.00,,,0.00,,2013-08-10 03:32:00,
2013-08-09 23:42:00,71.0,67.0,29.91,WSW,248,1.0,2.0,88,0.00,,,0.00,,2013-08-10 03:42:00,
2013-08-09 23:52:00,70.0,67.0,29.92,WSW,248,2.0,3.0,89,0.00,,,0.00,,2013-08-10 03:52:00,